GW3847 Weather Reports


time (UTC)temp
C
wind
direction
speed
KPH
gust
KPH
rain 1hr
cm
rain 24hr
cm
rain mn
cm
humidity
%
barometer
mb
20260507143810 12 172 0.0 1.6 0.00 0.00 0.00 52 1009.9
20260507143308 11 150 1.6 12.9 0.00 0.00 0.00 54 1009.9
20260507142803 11 343 1.6 16.1 0.00 0.00 0.00 55 1009.8
20260507142300 11 212 1.6 4.8 0.00 0.00 0.00 54 1009.8
20260507141756 12 47 0.0 12.9 0.00 0.00 0.00 53 1010.1
20260507141254 12 174 3.2 6.4 0.00 0.00 0.00 53 1010.0
20260507140750 11 261 0.0 3.2 0.00 0.00 0.00 59 1009.6
20260507140247 11 240 1.6 1.6 0.00 0.00 0.00 64 1009.9
20260507135744 11 141 1.6 3.2 0.00 0.00 0.00 70 1009.6
20260507135242 11 136 0.0 6.4 0.00 0.00 0.00 72 1010.0
20260507134738 10 117 0.0 4.8 0.00 0.00 0.00 71 1009.8
20260507134234 11 176 4.8 9.7 0.00 0.00 0.00 68 1009.8
20260507133730 12 168 3.2 6.4 0.00 0.00 0.00 69 1009.7
20260507133227 12 45 0.0 1.6 0.00 0.00 0.00 70 1009.4
20260507132725 11 230 0.0 4.8 0.00 0.00 0.00 70 1009.6
20260507132222 11 261 1.6 6.4 0.00 0.00 0.00 70 1009.8
20260507131718 10 83 3.2 9.7 0.00 0.00 0.00 72 1009.8
20260507131216 11 283 3.2 12.9 0.00 0.00 0.00 73 1009.8
20260507130712 11 240 1.6 3.2 0.00 0.00 0.00 73 1009.7
20260507130210 11 254 3.2 4.8 0.00 0.00 0.00 74 1009.6
20260507125708 10 16 1.6 6.4 0.00 0.00 0.00 75 1009.6
20260507125206 9 295 0.0 4.8 0.00 0.00 0.00 77 1009.7
20260507124702 8 315 8.0 12.9 0.00 0.00 0.00 78 1009.8
20260507124159 8 299 3.2 20.9 0.00 0.00 0.00 78 1009.8
20260507123657 9 284 4.8 9.7 0.00 0.00 0.00 79 1009.7
20260507123154 8 163 3.2 12.9 0.00 0.00 0.00 80 1009.7
20260507122649 8 244 0.0 6.4 0.00 0.00 0.00 81 1009.6
20260507122145 8 321 0.0 4.8 0.00 0.00 0.00 81 1009.5
20260507121642 8 92 0.0 0.0 0.00 0.00 0.00 81 1009.4
20260507121138 8 70 1.6 6.4 0.00 0.00 0.00 80 1009.4
20260507120634 8 254 0.0 0.0 0.00 0.00 0.00 85 1009.8
20260507120131 7 322 1.6 1.6 0.00 0.00 0.00 86 1009.7
20260507115627 7 358 0.0 0.0 0.00 0.00 0.00 86 1009.5
20260507115123 7 329 0.0 4.8 0.00 0.00 0.00 85 1009.7
20260507114619 7 208 0.0 3.2 0.00 0.00 0.00 86 1009.7
20260507114116 7 138 0.0 0.0 0.00 0.00 0.00 87 1009.7
20260507113614 7 310 0.0 0.0 0.00 0.00 0.00 89 1009.7
20260507113110 7 32 0.0 0.0 0.00 0.00 0.00 90 1009.7
20260507112608 7 357 3.2 3.2 0.00 0.00 0.00 89 1009.5
20260507112059 6 136 0.0 0.0 0.00 0.00 0.00 92 1009.4
20260507111556 6 246 0.0 0.0 0.00 0.00 0.00 92 1009.6
20260507111053 6 86 0.0 0.0 0.00 0.00 0.00 93 1009.3
20260507110549 6 228 0.0 0.0 0.00 0.00 0.00 93 1009.5
20260507110046 6 173 0.0 0.0 0.00 0.00 0.00 92 1009.4
20260507105542 6 293 0.0 0.0 0.00 0.00 0.00 93 1009.5
20260507105038 6 317 0.0 3.2 0.00 0.00 0.00 93 1009.3
20260507104536 6 261 0.0 0.0 0.00 0.00 0.00 93 1009.2
20260507104032 6 201 0.0 0.0 0.00 0.00 0.00 94 1009.0
20260507103528 6 208 0.0 0.0 0.00 0.00 0.00 94 1008.9
20260507103025 6 295 0.0 3.2 0.00 0.00 0.00 94 1008.9
20260507102522 5 302 4.8 6.4 0.00 0.00 0.00 94 1009.0
20260507102018 5 143 1.6 1.6 0.00 0.00 0.00 94 1008.8
20260507101514 5 211 0.0 3.2 0.00 0.00 0.00 94 1009.2
20260507101010 5 163 0.0 0.0 0.00 0.00 0.00 94 1009.3
20260507100508 5 310 0.0 1.6 0.00 0.00 0.00 94 1009.1
20260507100006 5 241 0.0 0.0 0.00 0.00 0.00 94 1008.9
20260507095503 6 332 0.0 0.0 0.00 0.00 0.00 93 1008.9
20260507095000 6 302 0.0 0.0 0.00 0.00 0.00 93 1009.1
20260507094456 6 328 0.0 0.0 0.00 0.00 0.00 94 1009.3
20260507093953 6 232 0.0 0.0 0.00 0.00 0.00 94 1009.3
20260507093450 6 334 0.0 0.0 0.00 0.00 0.00 94 1008.9
20260507092949 6 344 1.6 1.6 0.00 0.00 0.00 94 1009.3
20260507092445 6 257 0.0 0.0 0.00 0.00 0.00 94 1009.4
20260507091942 6 186 0.0 6.4 0.00 0.00 0.00 94 1009.3
20260507091438 6 284 0.0 0.0 0.00 0.00 0.00 94 1009.0
20260507090934 6 23 0.0 0.0 0.00 0.00 0.00 94 1009.6
20260507090430 6 249 1.6 1.6 0.00 0.00 0.00 94 1009.8
20260507085927 6 315 0.0 0.0 0.00 0.00 0.00 94 1009.7
20260507085424 6 338 0.0 3.2 0.00 0.00 0.00 94 1009.7
20260507084921 6 235 1.6 4.8 0.00 0.00 0.00 93 1009.9
20260507084418 6 185 1.6 4.8 0.00 0.00 0.00 93 1009.5
20260507083915 6 354 0.0 0.0 0.00 0.00 0.00 93 1009.5
20260507083411 6 242 0.0 1.6 0.00 0.00 0.00 93 1009.2
20260507082907 6 108 0.0 0.0 0.00 0.00 0.00 94 1009.0
20260507082403 6 287 0.0 0.0 0.00 0.00 0.00 94 1009.1
20260507081901 6 248 0.0 0.0 0.00 0.00 0.00 94 1009.1
20260507081356 6 270 1.6 3.2 0.00 0.00 0.00 94 1009.1
20260507080853 6 5 0.0 1.6 0.00 0.00 0.00 94 1009.3
20260507080349 6 343 0.0 1.6 0.00 0.00 0.00 94 1009.3
20260507075845 6 30 0.0 0.0 0.00 0.00 0.00 94 1009.1
20260507075341 6 328 0.0 4.8 0.00 0.00 0.00 94 1008.9
20260507074838 6 347 0.0 0.0 0.00 0.00 0.00 94 1009.0
20260507074335 6 45 0.0 3.2 0.00 0.00 0.00 93 1009.3
20260507073832 6 246 0.0 4.8 0.00 0.00 0.00 94 1009.4
20260507073329 6 186 0.0 0.0 0.00 0.00 0.00 94 1009.4
20260507072826 6 4 0.0 0.0 0.00 0.00 0.00 94 1009.3
20260507072324 6 340 0.0 0.0 0.00 0.00 0.00 95 1009.3
20260507071821 6 182 0.0 1.6 0.00 0.00 0.00 95 1009.0
20260507071318 6 267 0.0 4.8 0.00 0.00 0.00 94 1009.0
20260507070814 6 281 0.0 3.2 0.00 0.00 0.00 96 1008.7
20260507070312 6 302 1.6 4.8 0.00 0.00 0.00 97 1008.7
20260507065808 6 280 0.0 0.0 0.00 0.00 0.00 97 1009.1
20260507065306 6 259 0.0 0.0 0.00 0.00 0.00 98 1009.1
20260507064802 6 214 0.0 0.0 0.00 0.00 0.00 97 1008.8
20260507064301 6 238 0.0 0.0 0.00 0.00 0.00 97 1008.5
20260507063758 6 234 0.0 0.0 0.00 0.00 0.00 97 1008.9
20260507063255 6 226 0.0 0.0 0.00 0.00 0.00 96 1009.0
20260507062752 6 303 0.0 0.0 0.00 0.00 0.00 96 1008.8
20260507062249 7 269 0.0 0.0 0.00 0.00 0.00 96 1009.0
20260507061747 7 257 0.0 0.0 0.00 0.00 0.00 95 1009.2
20260507061244 7 349 0.0 3.2 0.00 0.00 0.00 95 1009.1
20260507060743 7 323 0.0 3.2 0.00 0.00 0.00 95 1009.0
20260507060239 7 220 0.0 0.0 0.00 0.00 0.00 96 1009.1
20260507055735 7 282 1.6 6.4 0.00 0.00 0.00 97 1009.2
20260507055230 7 179 0.0 0.0 0.00 0.00 0.00 97 1009.2
20260507054727 7 225 0.0 0.0 0.00 0.00 0.00 97 1009.0
20260507054224 7 143 0.0 0.0 0.00 0.00 0.00 98 1009.2
20260507053721 7 192 0.0 0.0 0.00 0.00 0.00 98 1009.1
20260507053219 7 189 0.0 0.0 0.00 0.00 0.00 98 1009.3
20260507052718 7 232 0.0 0.0 0.00 0.00 0.00 98 1009.3
20260507052214 7 221 0.0 0.0 0.00 0.00 0.00 98 1009.3
20260507051712 7 195 0.0 0.0 0.00 0.00 0.00 98 1009.2
20260507051208 7 198 0.0 0.0 0.00 0.00 0.00 98 1009.3
20260507050705 7 173 0.0 0.0 0.00 0.00 0.00 98 1009.2
20260507050202 7 201 0.0 0.0 0.00 0.00 0.00 98 1009.3
20260507045659 8 153 0.0 0.0 0.00 0.00 0.00 98 1009.3
20260507045156 8 39 0.0 0.0 0.00 0.00 0.00 98 1009.2
20260507044652 8 222 0.0 0.0 0.00 0.00 0.00 99 1009.0
20260507044149 8 304 0.0 0.0 0.00 0.00 0.00 99 1008.8
20260507043645 8 299 0.0 0.0 0.00 0.00 0.00 99 1009.0
20260507043142 8 237 0.0 0.0 0.00 0.00 0.00 99 1009.0
20260507042638 8 244 0.0 0.0 0.00 0.00 0.00 99 1008.8
20260507042134 8 291 0.0 0.0 0.00 0.00 0.00 99 1009.1
20260507041631 8 312 0.0 0.0 0.00 0.00 0.00 99 1008.8
20260507041127 8 312 0.0 0.0 0.00 0.00 0.00 99 1009.3
20260507040625 8 313 0.0 0.0 0.00 0.00 0.00 99 1009.5
20260507040121 8 313 0.0 0.0 0.00 0.00 0.00 99 1009.3
20260507035616 8 359 0.0 0.0 0.00 0.81 0.81 99 1009.2
20260507035113 8 295 0.0 0.0 0.00 0.81 0.81 99 1009.1
20260507034610 8 280 0.0 0.0 0.00 0.81 0.81 99 1009.0
20260507034107 8 310 0.0 0.0 0.00 0.81 0.81 99 1009.1
20260507033605 8 310 0.0 0.0 0.00 0.81 0.81 99 1009.1
20260507033057 8 0 0.0 0.0 0.00 0.81 0.81 98 1008.9
20260507032554 8 2 0.0 0.0 0.00 0.81 0.81 99 1008.9
20260507032050 8 354 0.0 0.0 0.00 0.81 0.81 99 1008.8
20260507031547 8 32 0.0 0.0 0.00 0.81 0.81 99 1008.9
20260507031043 9 328 0.0 0.0 0.00 0.81 0.81 99 1009.0
20260507030540 9 266 0.0 0.0 0.00 0.81 0.81 99 1008.8
20260507030038 9 224 0.0 0.0 0.00 0.81 0.81 99 1008.7
20260507025535 9 296 0.0 0.0 0.00 0.81 0.81 98 1008.9
20260507025032 10 315 0.0 0.0 0.18 0.81 0.81 98 1009.0
20260507024530 10 304 0.0 0.0 0.30 0.81 0.81 98 1009.0
20260507024027 10 334 0.0 0.0 0.13 0.79 0.79 97 1009.2
20260507023522 10 233 0.0 0.0 0.18 0.76 0.76 97 1009.1
20260507023021 10 220 0.0 1.6 0.30 0.76 0.76 97 1009.0
20260507022517 10 304 0.0 3.2 0.13 0.74 0.74 97 1008.8
20260507022012 11 2 0.0 0.0 0.00 0.71 0.71 98 1009.0
20260507021508 11 301 0.0 0.0 0.00 0.71 0.71 98 1008.7
20260507021005 11 106 0.0 0.0 0.00 0.71 0.71 98 1008.5
20260507020502 11 342 0.0 0.0 0.00 0.71 0.71 98 1008.3
20260507015959 11 31 0.0 0.0 0.00 0.71 0.71 98 1008.2
20260507015458 11 7 0.0 0.0 0.00 0.71 0.71 98 1008.4
20260507014955 11 328 1.6 1.6 0.18 0.71 0.71 97 1008.3
20260507014451 11 119 1.6 3.2 0.18 0.71 0.71 97 1008.2
20260507013947 11 271 0.0 3.2 0.00 0.69 0.69 97 1007.9
20260507013444 12 219 1.6 3.2 0.00 0.69 0.69 97 1008.0
20260507012941 12 235 0.0 4.8 0.00 0.69 0.69 98 1008.0
20260507012438 12 304 0.0 0.0 0.00 0.69 0.69 99 1007.7
20260507011934 12 45 0.0 0.0 0.00 0.69 0.69 99 1007.9
20260507011431 12 30 0.0 0.0 0.30 0.69 0.69 99 1007.5
20260507010926 13 25 3.2 3.2 0.43 0.69 0.69 99 1007.6
20260507010421 13 52 0.0 0.0 0.30 0.64 0.64 99 1007.9
20260507005918 13 164 0.0 0.0 0.36 0.61 0.61 99 1007.5
20260507005415 13 174 0.0 0.0 0.30 0.58 0.58 99 1007.0
20260507004912 13 129 0.0 0.0 0.13 0.56 0.56 99 1007.2
20260507004409 13 152 0.0 0.0 0.00 0.53 0.53 99 1007.1
20260507003906 13 117 0.0 3.2 0.00 0.53 0.53 99 1007.0
20260507003401 13 121 1.6 1.6 0.00 0.53 0.53 99 1007.1
20260507002857 13 80 0.0 4.8 0.00 0.53 0.53 99 1006.7
20260507002353 13 161 0.0 0.0 0.00 0.53 0.53 99 1006.9
20260507001850 13 219 0.0 0.0 0.00 0.53 0.53 99 1006.8
20260507001347 13 81 0.0 0.0 0.00 0.53 0.53 99 1006.8
20260507000844 13 57 0.0 0.0 0.00 0.53 0.53 99 1006.9
20260507000339 13 187 0.0 0.0 0.00 0.53 0.53 99 1006.9
20260506235836 13 192 0.0 1.6 0.00 0.53 0.53 99 1006.8
20260506235333 13 220 0.0 0.0 0.00 0.53 0.53 99 1006.7
20260506234829 13 161 0.0 0.0 0.00 0.53 0.53 99 1006.7
20260506234327 13 162 0.0 0.0 0.00 0.53 0.53 99 1006.8
20260506233824 13 145 3.2 6.4 0.00 0.53 0.53 99 1006.6
20260506233319 13 128 0.0 4.8 0.00 0.53 0.53 99 1006.5
20260506232817 13 199 0.0 6.4 0.00 0.53 0.53 99 1006.4
20260506232312 13 99 1.6 4.8 0.00 0.53 0.53 99 1006.3
20260506231809 13 131 0.0 3.2 0.00 0.53 0.53 99 1006.5
20260506231307 13 129 3.2 4.8 0.18 0.53 0.53 99 1006.7
20260506230804 13 110 0.0 3.2 0.18 0.53 0.53 99 1006.6
20260506230301 13 148 1.6 6.4 0.00 0.51 0.51 99 1006.9
20260506225757 13 245 0.0 1.6 0.00 0.51 0.51 99 1006.7
20260506225254 13 172 1.6 4.8 0.00 0.51 0.51 99 1006.6
20260506224745 13 109 0.0 1.6 0.00 0.51 0.51 99 1006.8
20260506224243 13 163 1.6 3.2 0.00 0.51 0.51 99 1006.7
20260506223738 13 143 0.0 6.4 0.00 0.51 0.51 99 1006.8
20260506223234 13 118 0.0 6.4 0.00 0.51 0.51 99 1006.6
20260506222731 13 232 0.0 0.0 0.00 0.51 0.51 99 1006.8
20260506222226 13 133 3.2 3.2 0.00 0.51 0.51 98 1006.8
20260506221725 13 142 1.6 3.2 0.00 0.51 0.51 98 1006.7
20260506221223 13 225 0.0 3.2 0.00 0.51 0.51 98 1006.8
20260506220720 13 175 4.8 9.7 0.00 0.51 0.51 98 1006.8
20260506220214 13 134 1.6 9.7 0.00 0.51 0.51 97 1006.8
20260506215711 14 162 0.0 3.2 0.00 0.51 0.51 98 1006.8
20260506215206 14 110 4.8 6.4 0.00 0.51 0.51 97 1006.9
20260506214658 14 149 1.6 4.8 0.00 0.51 0.51 97 1006.7
20260506214155 14 154 1.6 4.8 0.00 0.51 0.51 97 1006.9
20260506213654 14 119 3.2 12.9 0.00 0.51 0.51 97 1006.7
20260506213150 14 122 1.6 4.8 0.00 0.51 0.51 97 1006.7
20260506212647 14 93 3.2 9.7 0.00 0.51 0.51 97 1006.7
20260506212142 14 95 3.2 4.8 0.00 0.51 0.51 97 1006.9
20260506211638 14 145 0.0 6.4 0.00 0.51 0.51 99 1006.9
20260506211135 14 120 0.0 0.0 0.00 0.51 0.51 98 1006.9
20260506210632 14 124 0.0 4.8 0.00 0.51 0.51 98 1006.7
20260506210129 14 165 1.6 3.2 0.00 0.51 0.51 98 1007.0
20260506205626 14 119 3.2 6.4 0.00 0.51 0.51 98 1006.8
20260506205120 14 157 0.0 1.6 0.00 0.51 0.51 98 1006.9
20260506204619 14 174 3.2 11.3 0.00 0.51 0.51 98 1007.0
20260506204115 15 175 6.4 12.9 0.00 0.51 0.51 98 1007.1
20260506203614 15 129 0.0 4.8 0.00 0.51 0.51 98 1007.1
20260506203110 15 119 0.0 3.2 0.00 0.51 0.51 99 1007.2
20260506202608 15 83 3.2 9.7 0.00 0.51 0.51 99 1007.2
20260506202104 15 141 0.0 3.2 0.00 0.51 0.51 99 1007.2
20260506201601 15 128 1.6 3.2 0.00 0.51 0.51 99 1007.4
20260506201058 15 115 0.0 1.6 0.13 0.51 0.51 99 1007.4
20260506200554 15 46 0.0 3.2 0.13 0.51 0.51 99 1007.2
20260506200051 14 155 0.0 9.7 0.18 0.48 0.48 99 1007.3
20260506195547 14 320 1.6 4.8 0.18 0.48 0.48 99 1007.7
20260506195044 14 173 0.0 3.2 0.00 0.46 0.46 99 1007.6
20260506194542 15 112 0.0 3.2 0.13 0.46 0.46 99 1007.6
20260506194038 15 179 0.0 0.0 0.30 0.46 0.46 99 1007.9
20260506193536 15 108 1.6 6.4 0.18 0.43 0.43 99 1007.9
20260506193032 15 142 0.0 4.8 0.30 0.41 0.41 99 1007.7
20260506192529 15 138 1.6 3.2 0.30 0.38 0.38 99 1007.7
20260506192025 15 93 0.0 3.2 0.48 0.36 0.36 99 1007.7
20260506191522 15 202 0.0 0.0 0.30 0.30 0.30 99 1007.7
20260506191018 15 128 0.0 0.0 0.13 0.28 0.28 99 1007.9
20260506190515 15 174 0.0 0.0 0.00 0.25 0.25 98 1008.2
20260506190012 16 131 0.0 3.2 0.00 0.25 0.25 98 1007.9
20260506185510 15 133 0.0 0.0 0.00 0.25 0.25 98 1007.7
20260506185006 15 317 0.0 0.0 0.00 0.25 0.25 98 1007.6
20260506184504 15 96 0.0 0.0 0.18 0.25 0.25 99 1007.6
20260506184001 15 168 0.0 0.0 0.18 0.25 0.25 98 1007.7
20260506183456 15 140 0.0 4.8 0.00 0.23 0.23 98 1008.1
20260506182953 15 146 0.0 0.0 0.13 0.23 0.23 98 1008.4
20260506182450 15 184 0.0 0.0 0.13 0.23 0.23 98 1008.4
20260506181947 15 231 0.0 0.0 0.18 0.20 0.20 98 1008.5
20260506181445 15 173 0.0 0.0 0.18 0.20 0.20 98 1008.5
20260506180942 15 137 0.0 0.0 0.13 0.18 0.18 98 1009.1
20260506180438 15 169 0.0 4.8 0.13 0.18 0.18 98 1008.9
20260506175935 15 153 0.0 0.0 0.00 0.15 0.15 97 1009.1
20260506175432 15 115 0.0 3.2 0.18 0.15 0.15 98 1008.9
20260506174928 15 138 0.0 0.0 0.00 0.13 0.13 98 1009.1
20260506174427 15 165 0.0 0.0 0.13 0.13 0.13 98 1009.1
20260506173923 15 138 0.0 0.0 0.30 0.13 0.13 97 1009.3
20260506173420 15 100 0.0 0.0 0.18 0.10 0.10 97 1009.3
20260506172917 15 119 0.0 3.2 0.13 0.08 0.08 96 1009.3
20260506172414 15 123 0.0 1.6 0.18 0.05 0.05 95 1009.4
20260506171911 15 104 0.0 0.0 0.18 0.05 0.05 95 1009.4
20260506171408 15 146 0.0 0.0 0.13 0.03 0.03 95 1009.5
20260506170906 15 146 0.0 0.0 0.13 0.03 0.03 93 1009.4
20260506170401 16 135 0.0 3.2 0.00 0.00 0.00 92 1009.2
20260506165900 16 121 0.0 1.6 0.00 0.00 0.00 91 1009.3
20260506165358 16 212 3.2 6.4 0.00 0.00 0.00 88 1009.4
20260506164849 16 193 1.6 12.9 0.00 0.00 0.00 84 1009.3
20260506164345 16 136 3.2 9.7 0.00 0.00 0.00 82 1009.4
20260506163844 17 170 3.2 4.8 0.00 0.00 0.00 81 1009.3
20260506163338 17 239 0.0 6.4 0.00 0.00 0.00 80 1009.6
20260506162833 18 287 3.2 6.4 0.00 0.00 0.00 76 1009.2
20260506162331 18 173 6.4 9.7 0.00 0.00 0.00 75 1009.3
20260506161828 18 140 3.2 3.2 0.00 0.00 0.00 76 1009.4
20260506161325 17 286 0.0 6.4 0.00 0.00 0.00 77 1009.5
20260506160818 18 102 4.8 12.9 0.00 0.00 0.00 76 1009.8
20260506160314 18 190 0.0 1.6 0.00 0.00 0.00 77 1009.8
20260506155813 17 117 0.0 6.4 0.00 0.00 0.00 76 1009.8
20260506155309 18 218 3.2 6.4 0.00 0.00 0.00 77 1009.9
20260506153421 18 90 3.2 4.8 0.00 0.00 0.00 76 1010.0
20260506152919 17 180 1.6 4.8 0.00 0.00 0.00 76 1010.1
20260506152416 17 135 0.0 4.8 0.00 0.00 0.00 77 1010.3
20260506151915 17 75 6.4 6.4 0.00 0.00 0.00 76 1010.1
20260506151411 17 123 0.0 11.3 0.00 0.00 0.00 77 1010.2
20260506150909 17 175 4.8 14.5 0.00 0.00 0.00 76 1010.2
20260506150404 18 144 1.6 12.9 0.00 0.00 0.00 75 1010.3
20260506145902 18 153 6.4 11.3 0.00 0.00 0.00 75 1010.4
20260506145358 18 145 3.2 9.7 0.00 0.00 0.00 75 1010.2
20260506144855 18 183 4.8 6.4 0.00 0.00 0.00 74 1010.2
20260506144352 18 213 0.0 6.4 0.00 0.00 0.00 74 1010.2
20260506143850 18 226 0.0 0.0 0.00 0.00 0.00 75 1009.9